Vorticity
9 9 6 6 3 3 4 1 -1 -2 0 0 5 8 10 39 46 16 7 4 1 4 3 3 5 4 2 5 5 6 7 8 8 4 6 6 6 6 5 6 6 8 8 9 8 6 6 5 6 6 6 5 5 5 6 5 5 5 4 5 4 5 6 6 6 6 6 6 6 6 6 6 5 5 6 8 7 6 4 3 2 2 2 2 3 3 5 7 8 8 7 5 5 6 7 8 8
8 8 5 5 2 3 5 -2 -5 -4 -0 2 5 8 23 54 37 2 10 7 1 5 3 3 2 3 3 5 7 6 7 8 8 5 7 5 4 5 5 5 6 7 9 10 8 6 6 6 6 6 5 5 6 6 5 5 5 4 4 5 5 6 5 6 6 6 6 5 6 6 7 6 6 5 5 6 6 5 4 3 2 2 2 2 3 5 6 6 8 7 5 6 6 7 8 9 9
6 8 6 5 3 2 2 -3 -4 -4 -2 3 4 7 22 31 14 3 12 8 3 5 4 2 1 3 3 5 7 5 7 6 6 6 6 7 5 5 4 5 6 6 10 10 7 6 6 7 5 5 5 5 7 6 6 5 5 5 5 5 5 6 6 6 6 6 6 6 6 7 7 6 6 5 4 5 6 6 6 4 3 3 3 3 5 6 6 7 7 6 5 6 7 8 8 10 10
8 7 5 5 3 3 2 -0 -2 -2 -1 4 4 4 16 18 17 14 8 8 3 3 6 3 1 2 3 5 6 4 5 6 6 7 6 7 6 5 4 4 6 6 9 11 7 6 6 6 5 6 6 6 6 6 6 6 5 6 5 6 6 6 6 6 6 6 6 6 7 8 8 8 7 7 6 5 5 7 7 5 5 4 3 4 6 6 7 7 7 5 6 7 8 10 11 12 12
10 7 7 6 3 6 3 3 1 1 1 5 6 3 26 32 27 17 2 7 1 2 6 3 4 2 5 6 7 6 4 7 6 7 7 6 6 5 4 4 6 6 9 12 7 5 6 5 6 6 6 6 6 5 5 6 6 6 6 6 6 6 7 7 7 6 7 8 9 10 9 8 9 9 8 6 6 6 6 6 6 5 4 5 6 6 7 7 6 6 8 10 10 13 14 12 13
7 5 9 7 6 8 2 5 2 6 5 8 5 -0 41 40 13 9 1 6 -0 1 4 1 6 2 6 7 7 6 3 7 5 6 6 6 6 4 5 5 6 6 8 12 8 4 5 5 6 6 5 5 5 6 5 5 5 6 6 6 7 8 8 7 7 7 9 10 10 9 9 9 9 9 9 9 8 7 6 7 7 7 7 7 6 7 7 6 6 9 10 9 9 14 14 11 13
5 5 8 8 9 8 7 8 4 12 7 14 11 1 47 33 -2 10 5 5 -1 -2 5 2 5 4 7 5 4 5 6 9 4 7 8 5 6 4 5 5 5 6 8 11 9 5 5 5 6 5 4 4 5 6 6 6 6 6 7 8 8 7 7 7 7 8 9 9 9 9 9 10 9 10 10 9 9 9 8 8 8 9 9 8 7 7 6 6 7 10 11 9 10 14 15 13 13
6 6 7 8 7 7 9 3 1 10 11 22 12 6 44 23 -5 11 6 7 4 0 5 3 4 5 7 5 5 6 9 10 5 8 10 5 6 6 5 6 6 5 7 10 9 5 4 5 5 4 4 4 5 7 7 7 7 7 8 8 7 6 6 6 7 8 9 10 9 8 9 9 9 10 10 9 10 11 10 8 8 8 9 8 7 7 6 6 7 9 11 10 11 12 14 12 10
5 6 5 6 5 8 7 -3 -4 8 27 23 0 20 40 11 1 5 3 9 8 6 5 4 4 5 7 6 7 7 8 10 8 10 10 6 7 8 5 6 6 5 7 9 9 5 4 5 5 5 4 5 6 7 8 8 8 8 8 7 7 7 7 6 7 8 10 10 9 8 7 8 8 11 10 9 10 10 10 8 8 8 8 8 7 7 6 6 8 10 12 10 10 10 11 8 8
4 5 6 7 5 9 5 3 3 7 34 19 13 57 36 -0 9 1 0 6 4 8 3 4 7 7 8 6 7 6 7 10 9 10 9 5 7 8 5 7 6 6 8 8 8 5 4 5 5 5 4 5 6 8 9 9 8 8 7 7 7 7 7 7 7 7 9 10 9 8 7 8 9 12 12 10 10 8 9 9 9 8 8 8 7 6 5 6 7 9 10 9 7 8 10 8 9
3 4 5 5 5 7 3 9 8 5 24 21 37 59 17 -3 10 1 2 4 3 6 3 5 8 8 7 6 7 6 7 9 8 9 8 6 8 7 5 7 6 7 9 10 7 5 5 4 5 5 4 6 6 9 8 8 7 7 7 7 7 7 8 7 6 7 8 9 8 8 8 9 10 13 14 11 10 10 10 9 9 9 8 8 7 5 4 5 6 8 8 8 6 7 8 8 7
3 4 4 2 3 2 2 8 8 8 10 26 48 26 1 5 2 4 6 3 4 4 3 5 6 6 5 6 6 5 7 7 8 9 8 7 8 7 4 6 7 6 8 11 8 5 5 3 4 4 5 6 6 8 7 6 6 7 7 7 8 8 8 8 7 8 9 10 9 8 8 10 11 13 14 12 11 11 11 10 9 9 8 7 6 5 4 4 5 7 7 8 7 6 7 6 6
4 3 4 1 0 -2 2 5 4 11 4 30 55 12 -0 7 -3 5 5 4 5 2 6 4 5 6 3 5 5 4 5 6 6 7 8 8 7 6 5 6 7 6 7 11 10 6 4 4 4 4 6 6 6 7 7 6 6 7 7 7 8 8 8 8 9 8 9 9 9 9 9 10 12 12 13 12 11 10 10 10 10 8 7 6 6 4 3 3 4 5 5 6 6 5 6 6 6
3 2 5 2 1 -3 -2 4 -2 6 9 32 48 11 0 5 0 4 2 6 4 3 7 4 7 6 4 4 3 3 3 5 4 6 10 8 7 6 5 6 7 7 7 11 12 7 4 4 4 5 6 7 6 6 6 6 7 7 7 7 7 8 8 9 9 9 7 8 9 10 11 11 11 11 11 10 10 9 9 9 8 7 7 5 5 5 3 2 2 4 5 5 5 5 5 5 4
4 2 7 4 2 -1 -2 3 -3 2 13 32 41 13 2 5 2 2 4 7 3 6 4 3 7 5 7 2 3 4 2 5 3 7 11 7 6 5 5 6 7 8 7 10 13 8 4 3 4 5 5 7 7 6 6 6 7 7 6 7 6 7 8 8 9 8 8 8 9 10 11 12 12 10 9 9 8 8 7 7 7 7 6 5 5 5 5 5 3 4 6 6 5 5 5 5 6
6 3 7 7 2 1 1 1 -2 1 8 29 42 22 7 4 2 2 5 6 4 6 3 6 8 6 10 4 7 6 2 4 3 8 10 6 6 4 5 4 6 9 8 10 13 9 4 3 5 5 4 6 7 6 5 5 6 6 6 7 6 6 6 7 8 8 7 7 8 9 10 10 11 11 9 10 8 7 6 6 6 6 6 5 5 5 5 6 6 6 6 6 7 6 6 7 7
5 4 7 8 2 1 2 1 0 3 4 16 31 29 18 3 -0 3 4 7 5 5 7 8 5 6 10 8 10 5 3 5 4 8 8 5 6 5 5 4 5 9 9 10 13 11 4 3 4 6 5 6 8 5 4 6 6 6 7 7 6 5 5 6 7 7 7 7 7 7 8 9 10 10 9 9 9 7 6 6 6 6 6 5 4 4 5 5 7 8 8 7 7 7 7 7 6
4 5 7 6 4 1 1 3 1 5 8 10 20 31 28 3 -3 6 5 6 6 6 7 5 3 4 7 11 11 6 5 6 6 8 8 6 6 6 6 4 5 8 11 9 12 11 4 2 4 6 6 7 8 5 4 6 6 6 7 7 6 5 5 6 7 7 7 7 7 6 6 7 9 10 10 9 7 7 6 6 6 6 6 5 4 4 4 5 6 7 7 6 5 5 6 6 6
3 3 5 5 5 2 -0 3 3 6 7 10 21 28 27 11 1 7 5 3 5 6 4 3 4 2 3 8 10 9 7 8 8 7 8 7 6 8 7 6 5 7 11 10 11 12 5 2 3 6 7 8 8 5 5 7 6 6 7 8 7 6 5 6 7 7 7 6 7 6 5 5 6 8 9 10 8 8 7 6 6 6 6 5 5 4 5 5 5 5 5 5 5 6 6 7 7
2 2 4 5 6 3 0 2 3 5 3 6 18 26 34 22 4 6 6 2 2 3 3 3 3 2 2 3 7 11 10 8 8 7 8 7 7 9 7 7 5 6 11 10 11 12 6 2 3 5 7 9 8 6 5 6 6 6 8 8 7 6 6 6 7 7 6 6 6 6 6 5 4 4 6 8 9 9 9 9 8 7 7 6 6 5 5 6 6 5 5 5 5 7 7 7 7
2 2 4 5 5 2 0 4 3 2 4 7 10 26 41 20 0 8 7 3 4 3 4 6 6 5 3 1 4 9 9 6 6 7 7 6 6 6 6 6 5 6 11 11 10 13 8 3 4 5 7 9 8 6 5 6 6 5 8 8 8 7 6 6 6 7 6 6 6 6 6 6 5 5 5 6 7 8 8 9 9 9 9 9 9 8 8 7 7 6 6 7 7 7 7 7 7
3 3 3 3 5 2 -0 2 4 1 4 8 7 22 33 13 4 9 5 4 5 3 4 7 9 7 5 2 3 6 7 5 4 5 6 6 5 5 7 6 5 6 12 11 8 13 9 3 4 4 6 9 8 5 4 6 5 5 7 7 7 7 7 6 5 6 6 6 6 6 7 7 7 6 7 7 6 7 8 8 9 10 11 11 12 12 11 10 9 9 8 8 8 8 7 8 9
3 4 3 3 5 5 1 0 4 4 2 3 5 17 19 8 7 6 5 4 2 4 5 5 6 7 8 6 5 6 7 5 4 5 6 7 6 7 8 7 5 7 13 11 6 12 10 4 4 4 6 9 8 5 4 6 5 5 5 5 6 6 6 6 5 5 4 5 5 5 6 7 8 8 8 8 7 8 7 7 8 9 9 10 11 12 12 11 10 10 10 10 10 10 10 11 10
3 4 4 4 4 4 3 2 4 4 6 4 5 17 16 9 7 2 5 5 1 5 5 5 6 7 9 9 9 7 6 7 6 7 8 7 6 7 8 7 6 8 14 11 5 10 10 5 4 4 7 9 7 4 4 5 5 5 4 5 5 5 6 6 6 3 2 5 6 6 7 7 7 8 8 8 8 8 7 6 7 7 8 8 9 11 12 12 12 11 11 11 11 11 11 11 9
4 5 4 3 4 3 2 4 6 5 8 8 7 13 10 7 8 3 6 7 4 6 5 6 7 7 8 8 10 6 5 7 6 6 5 5 6 6 7 7 6 10 15 11 5 8 10 7 4 4 7 9 7 4 5 5 5 5 4 5 5 5 6 6 5 2 2 6 6 6 7 7 6 7 8 8 8 7 7 6 5 5 6 7 9 10 11 11 12 12 12 11 11 11 11 10 9
5 6 4 4 3 4 4 4 6 5 6 7 6 7 6 12 16 9 7 5 5 7 5 6 7 7 7 8 8 4 5 7 7 6 5 6 7 6 7 7 6 9 13 11 5 6 9 8 5 4 7 10 8 4 5 6 5 5 4 5 5 5 6 6 6 4 5 6 6 6 7 7 6 7 8 8 7 7 7 6 5 5 5 6 8 9 10 11 10 10 10 11 11 10 9 9 8
8 7 4 5 4 4 6 6 6 6 6 5 2 5 14 25 21 8 4 5 6 5 3 6 7 7 7 9 8 5 7 8 8 7 5 7 7 6 7 6 6 9 12 9 6 6 7 8 7 4 6 11 9 4 4 5 5 6 5 5 5 6 6 6 7 7 7 8 7 6 7 7 6 8 9 8 7 7 7 6 6 5 4 5 6 8 9 9 9 8 8 8 9 8 8 8 7
9 8 5 7 7 6 7 8 8 6 7 7 3 4 13 17 11 5 7 10 8 2 3 6 7 6 7 9 8 6 7 8 9 8 6 8 8 8 8 7 7 9 11 9 7 7 6 7 7 4 5 11 10 4 4 5 5 5 5 5 5 5 6 6 7 7 8 8 7 5 7 7 6 7 8 8 7 7 7 5 5 5 4 5 5 7 7 8 8 7 7 7 7 6 6 6 6
7 7 8 8 7 8 9 8 8 6 6 9 8 6 6 5 8 13 13 10 5 2 5 7 7 7 7 9 8 6 5 6 8 8 8 9 10 9 9 8 6 8 10 8 7 8 8 7 6 6 4 10 11 5 4 5 5 5 5 5 6 5 5 6 7 6 7 7 7 5 6 6 6 6 7 8 7 7 7 5 4 3 4 5 5 6 7 7 7 7 7 6 6 6 5 6 5
5 6 10 9 8 10 9 8 8 7 7 10 11 7 7 10 15 15 6 2 3 3 5 6 8 8 6 7 8 7 5 6 7 7 8 7 8 9 9 8 6 7 10 9 8 9 11 7 5 6 4 8 11 5 4 5 4 4 5 5 6 5 4 5 6 6 6 6 7 6 6 5 5 6 7 7 7 8 9 8 5 3 3 4 4 4 5 7 7 7 7 6 7 7 6 6 6
4 5 8 8 9 10 9 10 9 8 9 14 14 8 7 11 12 4 -3 -0 4 4 4 5 6 7 7 6 6 9 9 8 7 7 9 8 7 8 8 9 7 7 9 9 8 11 14 9 5 6 4 7 10 7 5 5 5 4 5 6 5 4 5 6 7 6 6 6 6 7 6 5 5 6 7 7 7 7 8 10 8 6 4 3 3 3 3 5 6 6 7 7 7 7 7 6 7
5 6 6 7 8 8 10 11 7 6 8 10 11 8 5 5 5 1 -2 2 2 2 4 5 5 6 8 7 5 9 11 9 8 8 10 8 7 8 8 9 8 8 9 9 8 12 16 10 5 5 4 7 9 7 5 5 5 4 4 6 5 4 6 8 9 7 6 6 7 7 7 6 6 6 6 6 6 5 6 8 9 8 7 5 3 2 2 3 4 4 5 6 6 7 7 7 6
6 7 5 5 6 6 10 9 3 6 9 7 6 7 5 2 3 2 1 2 1 2 4 4 4 4 6 7 5 7 9 8 6 7 9 7 7 7 7 9 10 9 8 9 9 11 15 10 5 5 4 7 10 7 5 6 5 4 4 6 5 5 6 9 10 8 6 6 7 7 7 7 7 6 6 6 5 5 6 6 7 8 9 7 5 3 3 3 3 3 3 4 5 5 7 7 7
7 8 6 5 5 5 8 6 4 11 13 10 8 7 6 3 3 3 2 2 -0 1 3 2 4 4 5 6 4 5 8 8 6 7 8 6 6 7 7 8 10 10 9 10 10 11 14 11 6 5 4 6 9 6 4 5 5 4 4 6 6 4 6 9 10 9 7 7 7 7 7 7 8 8 6 5 5 5 6 5 5 5 7 7 6 5 4 4 4 3 4 4 4 5 6 6 6
8 8 8 6 6 6 6 5 6 10 9 8 9 7 6 5 3 3 3 3 1 0 2 2 4 5 5 5 4 5 8 9 7 9 10 8 7 7 8 8 8 10 10 10 10 11 13 12 6 5 6 7 8 6 4 5 5 5 5 6 6 4 6 8 8 8 7 6 7 8 8 8 8 8 7 6 6 6 6 6 5 5 5 6 6 6 5 5 5 4 5 5 5 5 5 5 6
9 8 7 6 6 6 4 4 6 7 8 9 7 6 6 6 5 3 3 2 3 3 3 4 5 6 6 4 6 7 7 10 9 9 11 9 8 8 8 8 8 8 10 11 10 10 12 13 8 4 6 8 8 6 5 4 4 4 5 5 5 4 5 7 8 7 7 7 7 8 8 8 8 8 7 7 7 8 7 8 8 7 7 7 6 5 5 5 5 4 4 5 6 6 6 6 5
10 8 6 6 7 7 3 4 7 7 11 13 7 6 7 7 7 5 5 4 4 5 3 3 3 5 6 6 7 7 5 7 9 10 11 10 9 9 8 8 9 8 9 10 10 10 11 13 11 5 6 9 8 6 5 4 3 3 5 6 5 5 5 6 7 7 7 8 6 7 7 7 8 7 7 8 8 8 9 10 11 10 10 10 9 7 6 6 5 4 4 5 6 6 6 7 7
8 7 6 5 6 6 3 4 6 6 12 11 5 5 6 6 7 6 7 6 5 5 2 1 2 2 3 4 3 5 6 7 7 8 10 11 9 9 7 7 9 8 7 8 10 11 11 15 15 8 6 10 8 5 5 3 2 3 6 7 6 6 6 7 9 7 7 8 6 6 7 7 7 7 7 7 8 9 10 11 11 11 12 11 11 10 9 9 8 7 7 6 7 6 6 7 8
7 7 7 7 7 6 3 3 4 6 9 5 1 4 4 4 6 5 6 5 4 4 2 2 3 4 4 3 1 4 8 7 7 5 5 9 9 8 7 6 8 8 7 8 10 11 11 15 18 12 8 10 8 5 5 3 1 4 8 9 6 7 9 9 9 8 7 7 6 6 7 6 7 7 7 8 8 9 10 10 9 9 10 10 11 10 11 11 10 10 10 9 8 7 7 7 8
8 9 9 10 10 8 4 3 3 5 3 -1 3 6 4 5 7 8 8 6 4 4 5 3 2 5 4 1 2 5 6 6 6 5 5 7 8 8 7 6 6 8 7 6 9 11 10 12 18 16 10 9 9 5 3 4 3 4 8 10 7 8 10 9 10 8 7 7 6 7 6 5 7 7 7 8 8 9 9 8 8 8 8 9 9 9 10 10 9 10 11 11 10 9 9 9 8
9 11 11 10 12 12 9 6 3 4 2 -0 6 5 3 8 10 8 7 7 8 7 8 7 5 3 1 -0 4 5 3 8 10 8 6 6 6 6 6 6 6 7 7 5 7 9 9 10 17 19 13 10 9 5 3 5 5 5 7 8 7 7 7 8 10 9 7 7 6 6 5 3 7 7 7 8 8 8 8 8 8 8 8 8 8 8 8 8 8 9 10 11 11 10 9 9 8
8 14 13 8 12 14 13 10 4 6 7 2 5 5 3 9 8 4 6 10 12 9 6 9 10 5 -0 0 4 5 4 11 18 14 10 8 7 7 7 8 6 5 7 6 5 7 8 9 15 20 17 12 8 5 3 5 6 5 6 7 5 6 6 6 9 9 7 7 6 5 3 3 6 8 8 8 7 7 7 8 9 8 8 8 8 8 7 8 8 9 9 10 10 9 9 9 9
7 14 13 7 11 14 13 9 4 8 8 1 4 6 3 7 6 0 6 13 10 7 6 9 13 8 5 5 5 5 5 9 14 14 12 10 9 9 8 7 6 5 8 9 6 7 7 7 12 19 19 14 9 5 3 4 6 5 3 4 5 6 8 8 10 10 7 7 6 4 3 3 6 8 8 7 6 6 7 8 8 8 8 9 9 8 7 8 7 7 7 8 9 9 9 9 9
7 13 12 7 10 14 11 6 6 10 9 3 4 7 4 5 4 0 5 9 6 6 8 8 10 8 7 8 7 7 6 5 8 8 8 8 8 8 7 6 5 5 8 10 9 7 7 6 9 16 20 16 10 6 4 4 4 3 2 4 8 8 8 10 13 11 7 6 5 4 4 4 6 8 8 7 6 6 7 7 8 8 8 8 8 7 6 6 5 5 5 6 9 11 10 9 9
8 12 11 8 11 12 7 4 6 9 11 8 5 6 7 4 2 2 2 4 9 15 12 6 9 9 5 5 7 8 7 8 10 8 8 10 9 6 6 5 5 6 8 10 11 8 7 7 8 14 18 17 12 6 3 4 3 2 1 3 9 11 8 10 14 12 9 6 4 4 5 5 7 8 8 6 6 6 7 8 9 9 9 8 6 5 5 4 4 5 7 9 11 10 10 8 7
10 12 10 8 9 8 5 3 4 5 9 11 7 5 6 2 2 3 2 5 15 21 13 5 7 7 3 4 5 6 7 7 9 8 8 13 13 7 5 7 6 7 7 8 13 13 9 7 8 12 15 16 13 7 2 4 4 2 2 4 7 9 7 8 14 14 10 8 5 5 5 6 8 9 7 6 6 7 7 9 10 9 9 8 6 5 4 5 6 7 9 10 9 7 7 7 7
10 8 7 7 7 4 3 2 1 2 5 8 9 8 7 3 3 4 5 8 12 14 8 7 13 13 6 2 3 5 5 5 6 7 10 15 16 10 8 10 9 7 6 6 12 16 12 8 7 10 14 14 13 8 3 3 4 3 4 6 7 6 5 7 12 13 11 8 6 5 5 6 8 9 7 5 7 7 7 8 9 8 8 7 7 7 6 8 9 8 8 7 7 7 7 8 8
9 6 5 5 6 3 2 1 0 1 3 5 7 10 11 7 6 10 8 6 11 10 4 5 9 8 1 -5 -1 5 6 6 4 5 12 17 15 10 7 9 10 10 8 7 9 13 14 11 8 9 12 13 12 10 4 3 5 4 3 6 7 4 3 6 10 12 10 7 6 6 5 7 8 8 6 5 6 6 6 8 8 8 8 6 7 10 10 10 10 8 7 6 7 7 8 9 9
10 8 5 4 3 3 1 -0 0 1 3 5 3 5 11 8 7 10 6 6 15 11 3 7 5 -1 -2 -5 -4 5 8 7 4 2 10 17 13 7 6 6 8 10 10 8 7 9 13 13 9 7 10 12 12 10 7 3 4 5 5 7 7 4 2 5 10 12 11 8 6 5 6 8 9 7 5 5 6 7 7 9 9 9 9 9 9 10 9 9 8 6 6 6 7 8 8 9 9
10 10 10 5 0 2 2 -1 1 2 3 5 3 3 8 10 9 6 -0 4 12 7 2 8 9 5 2 -4 -4 5 8 5 3 1 4 13 12 5 7 7 4 6 8 8 7 7 10 14 11 7 7 11 10 9 9 5 4 6 6 8 8 4 2 4 9 13 12 10 7 6 8 11 9 6 4 5 7 8 9 9 9 9 10 10 9 8 8 7 6 6 6 7 8 9 9 9 9
10 10 14 11 2 0 2 1 2 4 2 2 4 3 3 7 10 7 3 2 3 4 5 8 12 11 3 -4 -3 6 8 3 4 3 1 11 15 7 8 9 4 5 6 5 6 6 9 13 14 9 6 8 9 8 9 7 5 6 7 9 9 5 2 2 7 12 13 11 8 10 12 11 8 5 4 6 8 9 9 8 8 9 9 8 8 7 7 7 7 6 7 8 8 8 9 10 9
10 8 11 13 9 5 3 3 4 6 4 2 3 3 1 3 7 8 8 6 1 3 9 10 15 14 5 -3 -8 -4 6 5 6 6 1 10 18 8 6 7 5 6 7 5 6 6 8 11 14 13 7 6 8 7 7 7 6 6 7 10 9 5 3 2 4 9 12 11 10 11 12 9 7 5 5 6 9 10 9 8 7 8 8 8 7 7 7 6 6 6 7 8 7 7 8 9 9
10 8 8 10 12 11 7 5 7 8 5 2 3 3 2 1 5 7 7 7 5 6 9 8 9 11 9 3 -8 -10 4 9 8 8 2 8 16 8 3 6 5 7 7 7 6 4 7 9 11 15 11 6 8 7 6 5 5 5 7 10 10 6 4 3 3 6 10 11 10 10 9 7 6 6 6 7 10 10 8 7 7 7 7 8 8 7 7 7 6 6 6 7 7 7 8 8 9
9 9 8 9 10 11 10 7 8 9 5 2 3 3 2 0 1 4 3 3 5 7 9 7 5 7 9 7 -1 -4 4 10 10 10 3 7 15 8 3 6 5 5 6 8 6 2 5 8 11 16 15 8 6 7 7 5 4 4 5 8 10 7 5 5 4 5 8 11 9 7 7 7 6 6 7 8 10 10 7 6 6 6 7 7 8 8 7 7 7 6 6 6 7 8 8 8 8
9 9 9 12 11 9 10 9 7 9 7 3 4 3 3 2 -2 -2 -1 3 4 5 8 6 3 8 9 6 3 2 6 9 10 10 5 9 17 10 3 6 6 5 5 6 6 4 3 6 10 15 19 14 7 5 6 6 5 4 5 7 8 7 5 6 5 4 6 10 9 7 7 7 7 6 7 8 9 8 6 6 7 7 8 8 7 8 8 7 7 7 7 7 7 8 9 8 8
8 9 7 10 13 11 10 9 6 9 8 5 6 5 3 4 1 -3 -4 -1 1 2 6 7 4 7 10 6 2 4 7 8 9 10 5 5 13 8 -0 4 8 6 5 5 6 6 3 4 7 11 18 21 15 8 6 7 6 5 5 5 6 7 5 5 7 5 3 7 10 9 7 6 7 7 8 8 8 7 6 6 7 8 9 9 8 8 7 7 7 7 7 7 6 7 8 7 7
7 8 7 6 9 11 11 10 7 8 7 6 8 6 3 4 4 2 -2 -4 -2 -1 1 5 5 6 8 7 6 7 8 7 8 9 3 1 9 7 -1 3 8 6 6 7 6 7 5 4 6 7 11 20 23 16 8 7 8 7 6 6 5 6 5 5 6 6 3 4 8 10 9 7 7 8 9 8 7 6 5 5 7 9 10 11 10 8 8 8 8 8 7 6 6 6 6 7 6
8 8 8 5 5 9 12 12 9 9 7 6 8 7 3 4 5 5 3 0 1 3 2 1 3 5 5 6 9 10 9 9 9 7 2 -1 5 8 2 1 6 5 5 6 5 7 6 3 4 6 6 13 22 23 14 7 7 7 6 7 6 5 5 5 6 7 6 3 4 8 10 8 8 8 8 8 7 5 4 4 6 9 12 13 13 10 9 9 8 7 6 5 5 5 5 6 6
Height
5885 5885 5885 5886 5886 5887 5888 5888 5889 5889 5889 5888 5888 5888 5886 5884 5885 5888 5889 5890 5891 5891 5892 5892 5893 5893 5893 5893 5893 5893 5894 5895 5896 5896 5895 5895 5895 5896 5896 5896 5897 5897 5896 5896 5897 5898 5898 5899 5900 5901 5900 5901 5902 5902 5901 5900 5900 5900 5900 5900 5901 5901 5901 5902 5902 5902 5903 5903 5903 5903 5904 5904 5905 5905 5905 5905 5905 5905 5905 5905 5906 5908 5909 5909 5908 5908 5907 5908 5908 5907 5907 5907 5906 5906 5907 5906 5907
5885 5885 5886 5886 5887 5887 5888 5888 5889 5889 5888 5888 5888 5888 5885 5883 5884 5887 5889 5891 5892 5892 5892 5892 5893 5893 5893 5893 5893 5894 5895 5896 5897 5896 5896 5896 5896 5897 5897 5897 5898 5898 5897 5897 5897 5898 5898 5899 5900 5901 5901 5901 5902 5902 5901 5901 5901 5901 5901 5902 5902 5903 5903 5903 5903 5903 5903 5904 5904 5904 5904 5905 5905 5905 5905 5906 5906 5906 5906 5906 5907 5908 5909 5909 5909 5908 5908 5908 5908 5908 5908 5907 5907 5907 5906 5905 5906
5885 5885 5886 5886 5886 5887 5888 5888 5888 5888 5888 5888 5889 5888 5887 5886 5886 5888 5890 5892 5893 5893 5893 5893 5893 5894 5894 5894 5894 5895 5895 5896 5898 5897 5897 5897 5897 5897 5898 5899 5899 5899 5898 5898 5898 5899 5899 5899 5900 5901 5902 5901 5902 5902 5902 5902 5902 5902 5903 5903 5904 5904 5904 5904 5904 5904 5904 5904 5904 5904 5904 5905 5905 5905 5906 5906 5906 5907 5908 5908 5908 5908 5909 5910 5910 5909 5909 5909 5909 5909 5909 5908 5907 5907 5906 5906 5906
5886 5885 5886 5886 5886 5887 5888 5888 5888 5888 5888 5888 5889 5888 5888 5888 5887 5888 5890 5892 5893 5893 5893 5893 5893 5894 5894 5894 5895 5896 5895 5897 5898 5898 5898 5898 5898 5898 5899 5900 5900 5900 5900 5900 5900 5900 5901 5900 5901 5902 5903 5902 5903 5903 5903 5904 5904 5904 5904 5905 5905 5905 5905 5905 5905 5904 5905 5905 5905 5905 5905 5905 5905 5906 5906 5906 5907 5908 5909 5909 5908 5908 5909 5910 5910 5910 5910 5910 5910 5910 5909 5908 5908 5908 5908 5908 5908
5885 5885 5885 5886 5887 5888 5888 5888 5888 5888 5888 5888 5888 5888 5887 5888 5888 5888 5890 5891 5892 5893 5893 5893 5894 5894 5895 5895 5896 5896 5896 5898 5899 5899 5899 5898 5899 5899 5900 5900 5901 5901 5902 5902 5902 5902 5903 5903 5903 5904 5904 5904 5904 5905 5905 5905 5905 5905 5905 5905 5905 5906 5906 5906 5905 5905 5906 5906 5906 5906 5905 5906 5906 5906 5906 5906 5907 5908 5908 5909 5908 5908 5909 5911 5911 5911 5911 5911 5911 5910 5909 5909 5909 5909 5910 5909 5909
5885 5885 5885 5886 5887 5888 5888 5888 5888 5887 5887 5887 5887 5888 5887 5887 5889 5890 5890 5891 5892 5893 5894 5894 5895 5895 5895 5896 5897 5897 5897 5899 5899 5899 5899 5900 5899 5900 5901 5901 5902 5902 5903 5903 5904 5904 5905 5905 5906 5906 5906 5906 5906 5906 5906 5906 5906 5906 5906 5906 5907 5907 5907 5907 5907 5907 5907 5906 5906 5906 5906 5906 5906 5906 5906 5907 5908 5908 5909 5909 5909 5910 5911 5912 5911 5911 5912 5911 5911 5910 5910 5909 5909 5910 5910 5910 5910
5884 5885 5886 5886 5887 5888 5889 5889 5888 5887 5886 5886 5887 5887 5887 5888 5889 5890 5890 5892 5893 5894 5895 5896 5896 5896 5896 5897 5897 5898 5898 5899 5900 5899 5900 5901 5900 5901 5902 5902 5902 5903 5904 5904 5905 5906 5906 5907 5907 5907 5907 5907 5907 5907 5907 5907 5907 5907 5907 5907 5908 5908 5908 5908 5908 5908 5908 5907 5907 5907 5907 5907 5907 5907 5907 5907 5908 5909 5910 5910 5910 5911 5911 5912 5912 5912 5911 5911 5911 5910 5909 5908 5909 5910 5910 5910 5910
5884 5885 5886 5887 5887 5888 5889 5889 5888 5887 5885 5885 5886 5886 5887 5888 5889 5890 5890 5892 5893 5894 5896 5897 5897 5897 5897 5897 5898 5898 5899 5900 5901 5900 5901 5902 5901 5902 5903 5903 5904 5904 5905 5906 5906 5907 5907 5908 5908 5908 5908 5908 5908 5908 5908 5908 5908 5908 5908 5908 5908 5909 5909 5909 5909 5909 5908 5908 5907 5907 5907 5907 5907 5908 5908 5908 5909 5910 5910 5910 5910 5911 5911 5911 5911 5911 5911 5911 5911 5910 5910 5909 5910 5911 5911 5911 5911
5885 5886 5887 5887 5888 5888 5889 5888 5887 5886 5884 5884 5884 5884 5887 5888 5889 5890 5891 5893 5894 5895 5897 5898 5897 5898 5898 5898 5898 5899 5899 5900 5901 5901 5901 5903 5903 5903 5904 5904 5905 5905 5905 5906 5907 5908 5908 5909 5909 5909 5909 5910 5910 5910 5910 5909 5909 5909 5909 5909 5910 5910 5910 5910 5910 5910 5909 5909 5908 5908 5908 5908 5908 5909 5909 5910 5911 5911 5911 5911 5911 5911 5912 5912 5911 5912 5912 5913 5913 5914 5914 5914 5914 5913 5912 5912 5912
5886 5887 5887 5888 5887 5888 5888 5888 5887 5885 5883 5883 5882 5882 5885 5888 5890 5892 5893 5894 5895 5896 5897 5898 5898 5898 5899 5898 5899 5900 5900 5901 5902 5902 5902 5903 5904 5904 5904 5905 5906 5906 5906 5907 5908 5908 5909 5910 5910 5910 5911 5911 5911 5911 5911 5911 5911 5911 5911 5911 5911 5912 5911 5911 5911 5911 5910 5910 5909 5909 5909 5909 5910 5910 5910 5911 5911 5911 5911 5912 5913 5913 5913 5913 5913 5913 5914 5915 5915 5916 5917 5917 5916 5916 5916 5915 5916
5886 5888 5888 5887 5887 5887 5888 5887 5886 5884 5883 5883 5882 5881 5885 5888 5889 5892 5894 5894 5895 5896 5897 5898 5898 5899 5899 5899 5900 5901 5902 5902 5902 5902 5903 5904 5905 5904 5905 5906 5906 5907 5907 5908 5908 5909 5910 5910 5911 5912 5912 5912 5912 5912 5913 5912 5912 5913 5913 5913 5913 5913 5913 5913 5913 5912 5912 5912 5911 5911 5911 5911 5911 5911 5912 5912 5912 5913 5913 5914 5915 5915 5915 5915 5915 5915 5916 5917 5917 5918 5918 5917 5917 5918 5919 5918 5918
5887 5888 5888 5887 5887 5887 5887 5887 5886 5885 5884 5884 5884 5884 5885 5887 5889 5891 5893 5894 5895 5896 5897 5898 5898 5899 5898 5899 5900 5901 5902 5903 5903 5903 5904 5904 5905 5905 5906 5906 5907 5908 5908 5909 5909 5910 5911 5911 5912 5913 5913 5914 5914 5914 5914 5914 5914 5914 5914 5914 5914 5914 5914 5914 5914 5914 5914 5913 5913 5913 5912 5912 5913 5913 5913 5914 5914 5914 5914 5915 5916 5916 5916 5916 5917 5917 5918 5919 5920 5919 5919 5919 5919 5919 5919 5919 5919
5887 5888 5888 5887 5887 5887 5888 5888 5886 5885 5885 5885 5885 5885 5886 5888 5889 5891 5893 5895 5896 5897 5898 5898 5898 5899 5899 5900 5901 5902 5902 5903 5903 5904 5905 5905 5905 5906 5906 5907 5908 5909 5909 5910 5910 5911 5912 5912 5913 5914 5914 5915 5915 5915 5915 5915 5916 5916 5916 5916 5916 5916 5916 5916 5915 5915 5915 5915 5915 5915 5914 5914 5914 5914 5915 5915 5915 5915 5915 5915 5916 5916 5917 5917 5918 5919 5919 5920 5921 5921 5921 5921 5920 5919 5919 5919 5920
5887 5888 5888 5887 5887 5887 5888 5888 5887 5886 5885 5885 5885 5885 5887 5889 5890 5891 5893 5895 5896 5897 5898 5899 5899 5899 5900 5900 5901 5902 5902 5903 5904 5904 5906 5906 5906 5906 5907 5908 5909 5910 5910 5911 5912 5912 5913 5914 5914 5915 5915 5916 5916 5916 5916 5917 5917 5917 5917 5917 5917 5917 5917 5917 5917 5917 5917 5917 5917 5917 5916 5916 5916 5916 5916 5916 5916 5916 5916 5916 5917 5917 5917 5918 5919 5920 5920 5921 5922 5922 5922 5923 5922 5920 5920 5921 5922
5886 5887 5888 5888 5887 5887 5888 5888 5888 5887 5886 5885 5886 5887 5887 5889 5891 5892 5894 5895 5896 5897 5898 5899 5899 5900 5901 5901 5902 5902 5902 5903 5904 5905 5906 5906 5906 5907 5908 5909 5910 5911 5912 5912 5913 5914 5914 5915 5915 5916 5916 5917 5917 5918 5918 5918 5919 5919 5919 5919 5919 5918 5918 5918 5918 5919 5919 5919 5919 5918 5918 5917 5917 5917 5917 5917 5917 5917 5918 5918 5918 5918 5919 5919 5920 5921 5922 5922 5923 5922 5922 5924 5924 5922 5922 5923 5924
5886 5887 5888 5888 5887 5887 5888 5888 5889 5889 5888 5886 5887 5888 5888 5890 5892 5893 5894 5895 5896 5898 5898 5898 5899 5901 5902 5903 5903 5902 5903 5903 5904 5905 5906 5906 5906 5907 5908 5909 5910 5911 5912 5913 5914 5914 5915 5916 5916 5917 5918 5919 5919 5919 5920 5920 5920 5920 5920 5920 5920 5920 5920 5920 5920 5920 5920 5920 5920 5920 5919 5919 5918 5918 5919 5919 5919 5919 5919 5919 5920 5920 5920 5921 5921 5922 5923 5924 5925 5924 5923 5924 5924 5924 5924 5926 5927
5886 5887 5888 5888 5887 5888 5888 5889 5890 5890 5889 5888 5888 5888 5887 5890 5893 5894 5895 5895 5897 5898 5898 5899 5899 5900 5902 5904 5904 5903 5903 5903 5904 5905 5905 5906 5906 5907 5908 5909 5910 5912 5913 5913 5914 5915 5916 5917 5917 5918 5919 5920 5920 5921 5921 5921 5921 5921 5921 5921 5921 5921 5921 5921 5921 5922 5921 5921 5921 5921 5920 5920 5920 5920 5920 5920 5920 5920 5921 5921 5922 5922 5922 5922 5923 5923 5924 5926 5927 5927 5926 5925 5925 5925 5926 5927 5928
5886 5887 5888 5888 5888 5888 5888 5890 5890 5890 5890 5889 5888 5888 5888 5890 5892 5894 5896 5896 5897 5899 5899 5900 5900 5900 5902 5905 5905 5905 5904 5904 5904 5905 5906 5906 5907 5908 5908 5909 5911 5912 5913 5913 5914 5915 5916 5917 5918 5918 5919 5921 5921 5921 5922 5922 5922 5922 5922 5922 5922 5922 5922 5922 5923 5923 5923 5922 5922 5922 5922 5921 5921 5921 5921 5922 5922 5922 5922 5923 5923 5924 5924 5924 5924 5924 5925 5926 5927 5928 5928 5927 5927 5927 5928 5929 5929
5886 5887 5888 5888 5889 5889 5889 5890 5891 5891 5891 5890 5889 5889 5890 5891 5892 5894 5896 5897 5898 5899 5900 5900 5901 5901 5902 5904 5906 5905 5905 5905 5905 5906 5906 5907 5907 5908 5909 5910 5911 5912 5913 5914 5914 5915 5916 5917 5918 5919 5920 5921 5922 5922 5922 5923 5923 5923 5923 5923 5923 5923 5924 5924 5924 5924 5924 5923 5923 5923 5923 5923 5922 5922 5923 5923 5924 5924 5924 5924 5924 5925 5925 5925 5925 5926 5926 5927 5927 5928 5928 5929 5929 5929 5930 5931 5931
5885 5886 5887 5888 5889 5890 5890 5891 5892 5892 5892 5891 5890 5889 5889 5891 5893 5894 5896 5897 5898 5899 5899 5900 5901 5902 5903 5904 5905 5906 5906 5906 5906 5906 5907 5907 5908 5909 5910 5911 5912 5912 5913 5914 5915 5916 5917 5918 5918 5919 5920 5921 5922 5923 5923 5923 5923 5924 5924 5924 5924 5924 5925 5925 5925 5925 5925 5925 5925 5924 5924 5924 5924 5924 5924 5925 5925 5925 5925 5926 5926 5926 5926 5926 5927 5927 5928 5928 5928 5929 5929 5930 5930 5931 5931 5932 5932
5884 5885 5887 5888 5889 5890 5890 5891 5892 5892 5893 5892 5891 5890 5890 5892 5894 5894 5896 5898 5899 5899 5900 5901 5902 5903 5904 5904 5904 5906 5906 5906 5906 5907 5908 5908 5908 5909 5910 5912 5912 5913 5914 5915 5915 5916 5917 5918 5919 5920 5921 5922 5923 5923 5924 5924 5924 5924 5925 5925 5925 5925 5926 5926 5926 5926 5926 5926 5926 5926 5926 5926 5926 5926 5926 5926 5927 5927 5927 5927 5927 5927 5927 5928 5928 5929 5929 5930 5930 5930 5930 5931 5931 5932 5932 5933 5933
5883 5884 5886 5887 5889 5890 5890 5891 5892 5893 5893 5893 5892 5891 5892 5894 5895 5896 5896 5898 5899 5900 5901 5902 5903 5904 5905 5905 5904 5905 5906 5907 5907 5907 5908 5908 5908 5909 5910 5912 5913 5914 5914 5915 5916 5917 5918 5919 5920 5920 5921 5922 5923 5924 5924 5924 5925 5925 5926 5926 5926 5926 5927 5927 5927 5927 5927 5927 5927 5927 5927 5927 5927 5927 5927 5927 5928 5928 5928 5929 5929 5929 5929 5930 5930 5930 5931 5931 5931 5931 5931 5932 5932 5933 5933 5934 5934
5881 5883 5885 5887 5889 5890 5890 5891 5892 5893 5894 5894 5893 5893 5894 5895 5896 5897 5898 5899 5901 5901 5902 5902 5904 5906 5907 5906 5905 5905 5906 5907 5907 5908 5908 5909 5909 5910 5911 5912 5913 5914 5915 5915 5916 5917 5918 5919 5920 5921 5922 5923 5923 5924 5924 5925 5925 5926 5927 5927 5927 5927 5928 5928 5928 5929 5928 5929 5929 5929 5929 5929 5929 5929 5929 5929 5929 5930 5930 5930 5930 5931 5931 5932 5932 5932 5932 5933 5933 5933 5933 5933 5933 5934 5934 5935 5935
5880 5882 5885 5886 5888 5890 5891 5891 5892 5893 5894 5895 5895 5894 5894 5895 5896 5897 5899 5900 5902 5903 5903 5903 5904 5905 5907 5907 5906 5906 5907 5907 5908 5909 5909 5910 5910 5911 5912 5913 5914 5915 5915 5916 5917 5917 5918 5920 5921 5922 5922 5923 5924 5924 5925 5925 5926 5927 5927 5928 5928 5929 5929 5929 5929 5930 5930 5930 5930 5930 5930 5931 5931 5931 5931 5931 5931 5931 5932 5932 5932 5933 5933 5934 5934 5934 5934 5934 5934 5934 5935 5935 5935 5936 5936 5936 5937
5880 5881 5884 5885 5887 5889 5890 5891 5892 5893 5894 5895 5895 5895 5895 5895 5896 5897 5898 5900 5902 5903 5904 5904 5904 5905 5906 5907 5907 5907 5907 5908 5909 5909 5910 5910 5911 5912 5913 5914 5915 5915 5915 5916 5917 5918 5919 5920 5921 5922 5923 5923 5924 5925 5925 5926 5927 5928 5928 5928 5929 5929 5930 5930 5930 5931 5931 5931 5931 5932 5932 5932 5932 5932 5933 5933 5933 5933 5933 5934 5934 5934 5935 5935 5936 5936 5936 5936 5936 5936 5936 5937 5937 5937 5938 5938 5938
5878 5880 5883 5884 5886 5888 5890 5891 5892 5893 5894 5895 5895 5895 5895 5895 5897 5898 5899 5901 5902 5903 5904 5904 5904 5905 5905 5906 5907 5908 5908 5908 5909 5910 5910 5911 5911 5912 5913 5914 5915 5916 5916 5916 5917 5918 5919 5920 5922 5923 5923 5924 5925 5925 5926 5927 5927 5928 5929 5929 5930 5930 5931 5931 5932 5932 5932 5932 5933 5933 5933 5934 5934 5934 5934 5934 5934 5934 5935 5935 5936 5936 5937 5937 5937 5938 5938 5938 5938 5938 5938 5939 5939 5939 5939 5939 5940
5877 5879 5881 5883 5885 5886 5888 5890 5891 5893 5894 5895 5895 5895 5895 5895 5897 5898 5899 5901 5902 5903 5904 5904 5904 5905 5905 5906 5908 5909 5909 5909 5909 5910 5911 5911 5912 5912 5913 5914 5915 5916 5916 5916 5917 5918 5919 5920 5922 5923 5924 5925 5925 5926 5927 5928 5928 5929 5930 5930 5931 5931 5932 5932 5933 5933 5933 5934 5934 5934 5935 5935 5935 5935 5935 5936 5936 5936 5937 5937 5937 5938 5938 5939 5939 5939 5939 5940 5939 5939 5940 5940 5941 5941 5941 5941 5942
5876 5878 5880 5882 5884 5885 5887 5889 5890 5892 5893 5894 5895 5895 5895 5896 5897 5898 5899 5900 5901 5902 5903 5904 5904 5905 5906 5907 5908 5909 5910 5910 5910 5911 5911 5912 5912 5913 5913 5915 5915 5916 5916 5917 5918 5919 5919 5920 5922 5923 5924 5925 5926 5927 5928 5928 5929 5930 5930 5931 5932 5932 5932 5933 5933 5934 5934 5935 5935 5936 5936 5936 5937 5937 5937 5937 5937 5938 5938 5939 5939 5939 5940 5940 5940 5941 5941 5941 5941 5941 5941 5942 5943 5943 5943 5943 5943
5875 5877 5879 5881 5883 5884 5886 5887 5889 5891 5892 5894 5894 5895 5895 5896 5897 5897 5899 5900 5901 5902 5904 5904 5905 5905 5906 5908 5909 5910 5910 5910 5911 5911 5912 5912 5913 5913 5914 5915 5916 5916 5917 5917 5918 5919 5920 5921 5922 5923 5925 5926 5927 5927 5928 5929 5930 5931 5931 5932 5932 5933 5933 5934 5934 5934 5935 5936 5936 5937 5937 5937 5938 5938 5938 5938 5939 5939 5940 5940 5941 5941 5941 5942 5942 5942 5942 5943 5943 5943 5943 5943 5944 5945 5945 5945 5945
5874 5876 5878 5880 5882 5883 5884 5885 5887 5889 5891 5893 5894 5894 5895 5896 5896 5897 5898 5900 5901 5902 5903 5904 5905 5906 5907 5908 5909 5910 5910 5911 5911 5911 5912 5913 5913 5914 5915 5915 5916 5917 5917 5917 5918 5919 5920 5921 5922 5923 5925 5926 5927 5928 5929 5930 5931 5931 5932 5933 5933 5934 5934 5934 5935 5935 5936 5936 5937 5938 5938 5938 5939 5939 5940 5940 5940 5941 5942 5942 5942 5943 5943 5943 5943 5943 5944 5944 5945 5945 5945 5945 5945 5946 5947 5947 5947
5872 5874 5877 5879 5880 5881 5882 5884 5885 5888 5890 5892 5893 5893 5894 5895 5896 5897 5898 5899 5901 5902 5903 5904 5905 5906 5907 5907 5909 5910 5911 5911 5911 5912 5912 5913 5914 5914 5915 5916 5916 5917 5917 5918 5918 5919 5920 5921 5922 5923 5925 5926 5927 5928 5929 5930 5931 5932 5933 5933 5934 5935 5935 5935 5935 5936 5936 5937 5938 5938 5939 5939 5940 5940 5941 5941 5942 5942 5943 5943 5944 5944 5944 5945 5945 5945 5945 5946 5946 5946 5946 5946 5947 5948 5948 5949 5949
5870 5873 5875 5877 5878 5880 5881 5882 5883 5886 5888 5889 5891 5892 5893 5894 5895 5896 5897 5898 5900 5901 5902 5903 5905 5906 5906 5907 5908 5909 5911 5911 5912 5912 5912 5913 5914 5914 5915 5916 5917 5917 5918 5918 5919 5919 5920 5921 5922 5923 5925 5926 5927 5928 5930 5931 5932 5933 5934 5934 5935 5935 5936 5936 5936 5937 5937 5938 5938 5939 5939 5940 5941 5941 5942 5942 5943 5943 5944 5944 5945 5945 5945 5946 5946 5946 5946 5947 5947 5948 5948 5948 5948 5949 5950 5950 5950
5868 5871 5873 5875 5877 5878 5880 5881 5882 5884 5886 5887 5889 5890 5891 5893 5894 5895 5896 5897 5899 5900 5901 5902 5904 5905 5906 5907 5907 5909 5910 5911 5912 5912 5913 5913 5914 5915 5915 5916 5917 5918 5918 5919 5919 5919 5920 5921 5922 5923 5925 5926 5927 5928 5930 5931 5932 5934 5934 5935 5936 5936 5937 5937 5937 5938 5938 5939 5939 5940 5940 5941 5941 5942 5943 5943 5944 5944 5945 5946 5946 5946 5946 5947 5947 5947 5948 5948 5949 5949 5949 5949 5950 5950 5951 5952 5952
5866 5869 5871 5873 5875 5876 5878 5879 5881 5883 5885 5885 5887 5888 5890 5891 5893 5894 5896 5897 5898 5899 5900 5901 5903 5904 5905 5906 5907 5908 5909 5911 5911 5912 5913 5913 5914 5915 5916 5916 5917 5918 5919 5919 5920 5920 5920 5921 5922 5923 5925 5926 5927 5928 5930 5931 5933 5934 5935 5936 5936 5937 5938 5938 5938 5938 5939 5939 5940 5940 5941 5941 5942 5943 5943 5944 5945 5945 5946 5946 5947 5947 5947 5947 5948 5948 5949 5949 5950 5950 5951 5951 5951 5952 5953 5953 5953
5864 5866 5868 5870 5872 5874 5876 5878 5880 5882 5883 5884 5885 5887 5889 5891 5892 5893 5895 5896 5897 5898 5899 5900 5902 5903 5905 5906 5907 5908 5909 5910 5911 5912 5913 5913 5914 5915 5916 5916 5917 5918 5919 5920 5920 5920 5921 5922 5923 5924 5925 5926 5927 5929 5930 5932 5933 5934 5935 5936 5936 5937 5938 5938 5939 5939 5940 5940 5941 5941 5942 5942 5943 5943 5944 5945 5945 5946 5947 5947 5948 5948 5948 5948 5949 5949 5950 5950 5951 5951 5952 5952 5953 5953 5953 5953 5954
5861 5863 5865 5868 5870 5873 5875 5877 5879 5880 5881 5883 5884 5886 5888 5889 5891 5892 5893 5894 5896 5898 5898 5899 5901 5903 5904 5906 5907 5907 5908 5909 5910 5911 5912 5913 5914 5914 5915 5916 5917 5918 5919 5920 5921 5921 5921 5922 5923 5924 5925 5926 5927 5929 5930 5932 5933 5934 5935 5935 5936 5937 5938 5939 5939 5939 5940 5940 5941 5942 5942 5943 5944 5944 5945 5946 5946 5947 5947 5948 5949 5949 5949 5950 5950 5950 5951 5951 5952 5952 5952 5953 5954 5954 5954 5954 5955
5858 5860 5863 5865 5868 5871 5873 5876 5878 5879 5881 5882 5883 5884 5886 5887 5889 5890 5891 5892 5894 5896 5897 5898 5900 5902 5904 5905 5906 5907 5908 5909 5910 5911 5912 5913 5914 5914 5915 5916 5917 5918 5919 5920 5921 5921 5922 5922 5923 5924 5925 5926 5927 5928 5930 5931 5932 5933 5934 5935 5936 5937 5938 5939 5939 5940 5940 5941 5941 5942 5943 5944 5944 5945 5946 5946 5947 5947 5948 5949 5949 5950 5950 5950 5951 5951 5951 5952 5952 5952 5953 5954 5954 5955 5955 5955 5955
5856 5858 5860 5862 5866 5869 5871 5874 5876 5878 5880 5880 5881 5882 5884 5885 5887 5888 5890 5891 5892 5893 5895 5897 5898 5900 5903 5905 5906 5907 5908 5908 5909 5910 5911 5912 5913 5914 5915 5915 5916 5917 5918 5919 5921 5922 5922 5923 5923 5924 5925 5925 5927 5928 5929 5930 5932 5933 5934 5935 5936 5937 5938 5939 5940 5940 5940 5941 5942 5942 5943 5944 5945 5946 5946 5947 5948 5948 5949 5950 5950 5951 5951 5951 5951 5951 5952 5952 5953 5953 5954 5954 5954 5955 5955 5956 5956
5853 5856 5858 5860 5863 5866 5869 5872 5874 5876 5877 5878 5880 5881 5882 5883 5885 5887 5888 5889 5890 5892 5893 5895 5897 5899 5902 5903 5905 5907 5907 5908 5908 5909 5910 5911 5912 5913 5914 5915 5916 5917 5918 5919 5921 5922 5922 5923 5924 5924 5925 5925 5927 5928 5929 5930 5932 5933 5934 5935 5936 5937 5938 5939 5940 5940 5941 5941 5942 5943 5944 5944 5945 5946 5947 5948 5948 5949 5950 5950 5951 5951 5951 5952 5952 5952 5952 5953 5953 5953 5954 5955 5955 5955 5956 5956 5957
5852 5855 5857 5859 5862 5864 5867 5869 5872 5874 5875 5876 5878 5880 5881 5883 5885 5886 5887 5889 5890 5891 5893 5894 5896 5898 5901 5903 5905 5906 5907 5907 5908 5908 5909 5910 5911 5912 5913 5914 5915 5916 5917 5918 5920 5921 5922 5923 5924 5924 5925 5926 5927 5928 5929 5931 5932 5933 5935 5936 5937 5938 5939 5940 5941 5941 5941 5942 5942 5944 5944 5945 5946 5947 5948 5949 5949 5950 5950 5951 5952 5952 5952 5952 5953 5953 5953 5953 5953 5954 5955 5955 5956 5956 5957 5957 5957
5851 5854 5856 5858 5860 5862 5865 5867 5870 5872 5874 5875 5877 5879 5881 5884 5885 5886 5887 5889 5891 5892 5893 5895 5896 5897 5900 5903 5905 5906 5907 5907 5907 5908 5908 5909 5910 5911 5912 5913 5914 5915 5916 5917 5918 5920 5921 5922 5923 5925 5925 5926 5927 5928 5930 5931 5932 5933 5935 5936 5938 5939 5939 5940 5941 5941 5941 5942 5942 5944 5944 5945 5946 5947 5948 5949 5950 5950 5951 5951 5952 5953 5953 5953 5953 5953 5953 5954 5954 5955 5955 5956 5956 5957 5957 5958 5958
5850 5853 5855 5856 5858 5860 5863 5865 5867 5870 5873 5874 5876 5878 5881 5883 5884 5886 5887 5888 5890 5892 5894 5895 5896 5897 5898 5901 5903 5905 5906 5907 5907 5907 5908 5909 5909 5910 5912 5913 5913 5914 5915 5916 5917 5919 5921 5922 5923 5924 5926 5926 5927 5928 5930 5931 5932 5933 5934 5935 5936 5937 5938 5939 5940 5941 5941 5942 5943 5944 5944 5945 5947 5948 5949 5950 5950 5951 5951 5952 5953 5954 5954 5954 5954 5954 5954 5954 5955 5955 5956 5957 5957 5958 5958 5958 5958
5848 5851 5853 5853 5855 5857 5859 5861 5864 5868 5870 5871 5874 5877 5879 5881 5883 5885 5886 5888 5889 5891 5893 5895 5895 5896 5897 5899 5902 5903 5905 5905 5906 5907 5907 5908 5909 5910 5911 5912 5912 5913 5914 5915 5917 5918 5920 5921 5922 5924 5925 5926 5927 5929 5930 5931 5932 5933 5933 5934 5936 5937 5938 5939 5940 5941 5942 5943 5944 5944 5944 5945 5947 5949 5950 5950 5951 5951 5952 5953 5954 5954 5955 5955 5955 5955 5955 5955 5956 5956 5957 5957 5958 5958 5959 5959 5959
5847 5850 5851 5851 5853 5854 5855 5857 5862 5866 5868 5869 5872 5875 5878 5880 5882 5884 5886 5888 5889 5891 5893 5894 5895 5895 5896 5898 5900 5902 5903 5904 5905 5906 5906 5907 5908 5909 5910 5911 5911 5912 5913 5915 5916 5917 5918 5920 5921 5923 5924 5926 5928 5929 5930 5931 5931 5932 5933 5934 5935 5937 5938 5940 5941 5942 5942 5943 5944 5945 5945 5946 5948 5950 5950 5951 5951 5952 5952 5953 5954 5955 5956 5956 5956 5956 5956 5956 5957 5957 5957 5958 5958 5959 5959 5959 5960
5846 5847 5848 5848 5850 5851 5852 5854 5859 5863 5865 5868 5871 5874 5877 5880 5881 5883 5886 5888 5890 5892 5893 5894 5894 5895 5895 5897 5899 5901 5903 5904 5905 5905 5905 5906 5907 5908 5909 5910 5911 5912 5913 5914 5915 5916 5917 5919 5921 5922 5924 5926 5927 5929 5930 5930 5931 5932 5933 5934 5935 5937 5939 5940 5942 5942 5943 5943 5944 5945 5946 5947 5949 5950 5951 5951 5952 5953 5953 5954 5954 5955 5956 5957 5957 5957 5957 5957 5957 5957 5958 5958 5959 5959 5960 5960 5961
5843 5843 5843 5845 5847 5848 5849 5852 5856 5859 5863 5867 5869 5872 5876 5879 5880 5882 5885 5887 5890 5892 5893 5893 5893 5893 5894 5895 5898 5900 5902 5903 5904 5904 5904 5905 5906 5907 5908 5909 5910 5912 5913 5914 5915 5916 5917 5919 5921 5922 5923 5925 5927 5928 5930 5930 5931 5932 5934 5935 5936 5937 5939 5941 5942 5943 5944 5944 5945 5946 5947 5948 5949 5950 5951 5952 5952 5953 5953 5954 5954 5955 5956 5957 5957 5957 5957 5958 5958 5958 5958 5959 5959 5960 5960 5961 5961
5838 5838 5840 5842 5844 5846 5847 5850 5852 5855 5860 5864 5867 5870 5874 5876 5878 5880 5882 5884 5885 5886 5888 5890 5891 5893 5894 5895 5896 5898 5900 5901 5902 5903 5903 5904 5905 5907 5908 5909 5910 5911 5912 5914 5915 5916 5917 5918 5920 5921 5923 5924 5926 5928 5929 5930 5931 5932 5934 5935 5936 5938 5939 5941 5942 5943 5944 5944 5945 5946 5947 5948 5949 5950 5951 5951 5952 5953 5953 5954 5954 5955 5956 5957 5958 5958 5958 5958 5958 5959 5959 5959 5960 5960 5961 5962 5962
5833 5835 5837 5840 5842 5844 5845 5847 5849 5852 5857 5862 5865 5868 5871 5873 5875 5878 5880 5881 5881 5881 5882 5883 5885 5888 5890 5891 5893 5895 5897 5899 5900 5902 5902 5903 5904 5906 5908 5909 5910 5911 5912 5913 5915 5916 5917 5918 5919 5921 5922 5924 5925 5927 5929 5930 5931 5932 5934 5935 5936 5938 5939 5940 5942 5943 5944 5945 5945 5946 5947 5948 5948 5949 5950 5951 5951 5952 5953 5954 5954 5955 5956 5957 5958 5958 5958 5958 5959 5959 5960 5960 5961 5961 5962 5962 5963
5831 5833 5835 5837 5839 5841 5843 5844 5846 5850 5855 5860 5862 5866 5869 5871 5873 5876 5877 5878 5879 5880 5880 5879 5878 5880 5882 5885 5887 5890 5893 5895 5898 5900 5901 5902 5904 5905 5906 5908 5909 5911 5911 5912 5914 5915 5916 5917 5918 5920 5921 5922 5924 5926 5928 5929 5931 5932 5934 5935 5937 5938 5939 5940 5942 5943 5944 5945 5946 5946 5947 5948 5948 5948 5949 5950 5951 5952 5953 5954 5954 5955 5956 5957 5957 5958 5958 5958 5959 5960 5960 5961 5961 5962 5962 5963 5963
5830 5832 5834 5835 5837 5838 5840 5842 5844 5848 5853 5857 5860 5864 5867 5868 5871 5873 5874 5875 5877 5879 5880 5880 5879 5879 5879 5881 5882 5885 5888 5891 5894 5897 5899 5901 5902 5904 5905 5906 5908 5909 5910 5911 5912 5914 5915 5916 5917 5919 5920 5921 5923 5924 5926 5928 5930 5931 5933 5935 5936 5937 5938 5939 5941 5943 5945 5946 5946 5947 5947 5948 5948 5949 5950 5950 5951 5952 5953 5954 5954 5955 5956 5956 5957 5958 5958 5959 5959 5960 5960 5961 5962 5962 5963 5963 5964
5828 5830 5833 5835 5836 5838 5840 5841 5844 5847 5851 5854 5857 5861 5864 5866 5868 5870 5871 5872 5874 5876 5878 5880 5881 5881 5882 5882 5883 5884 5887 5889 5891 5894 5896 5898 5900 5902 5904 5905 5907 5908 5909 5910 5911 5913 5914 5915 5916 5917 5919 5920 5922 5923 5925 5926 5928 5930 5932 5934 5936 5937 5938 5939 5940 5942 5944 5945 5946 5947 5948 5948 5949 5949 5950 5951 5951 5952 5953 5954 5954 5955 5956 5956 5957 5957 5958 5959 5960 5960 5961 5961 5962 5963 5963 5963 5964
5824 5827 5829 5832 5835 5838 5839 5841 5843 5847 5849 5852 5855 5858 5861 5863 5866 5867 5868 5870 5872 5874 5876 5878 5880 5882 5883 5884 5885 5886 5888 5889 5891 5892 5893 5895 5897 5900 5902 5904 5905 5907 5908 5910 5911 5912 5913 5914 5915 5916 5918 5919 5921 5922 5923 5924 5926 5928 5930 5932 5934 5936 5937 5938 5940 5941 5943 5945 5946 5947 5948 5948 5949 5949 5950 5951 5952 5952 5953 5954 5955 5955 5956 5956 5957 5957 5958 5959 5960 5961 5961 5962 5962 5963 5963 5964 5964
5821 5823 5826 5829 5833 5835 5837 5838 5841 5844 5846 5848 5851 5854 5857 5860 5863 5864 5865 5867 5869 5871 5873 5875 5877 5880 5882 5884 5885 5887 5888 5889 5890 5891 5891 5892 5894 5897 5899 5901 5903 5906 5908 5909 5910 5911 5912 5913 5913 5914 5916 5918 5920 5921 5922 5923 5925 5927 5929 5931 5933 5935 5936 5937 5938 5940 5942 5943 5945 5946 5948 5948 5949 5949 5950 5951 5952 5953 5953 5954 5955 5955 5956 5956 5957 5957 5958 5959 5960 5960 5961 5962 5963 5963 5964 5964 5964
5818 5821 5824 5827 5830 5832 5834 5836 5838 5840 5843 5844 5846 5849 5853 5856 5859 5860 5862 5864 5866 5869 5871 5873 5874 5876 5879 5881 5884 5886 5887 5889 5890 5890 5891 5892 5893 5894 5897 5899 5901 5904 5906 5908 5909 5909 5910 5911 5912 5913 5915 5917 5918 5920 5921 5922 5924 5925 5927 5930 5932 5933 5934 5936 5937 5938 5940 5942 5944 5946 5947 5948 5948 5949 5950 5950 5951 5952 5953 5954 5955 5955 5956 5956 5957 5957 5958 5958 5959 5960 5961 5962 5962 5963 5964 5964 5965
5814 5818 5821 5824 5826 5828 5831 5833 5835 5837 5839 5841 5843 5845 5849 5852 5855 5857 5860 5861 5863 5865 5868 5870 5872 5874 5876 5878 5881 5884 5886 5887 5889 5890 5891 5893 5893 5894 5896 5897 5899 5901 5903 5905 5907 5908 5909 5911 5911 5912 5913 5915 5916 5918 5920 5921 5923 5924 5926 5928 5930 5932 5933 5934 5936 5937 5939 5941 5943 5945 5946 5947 5948 5948 5949 5950 5951 5952 5953 5954 5954 5955 5956 5956 5956 5957 5957 5958 5959 5960 5960 5961 5962 5963 5964 5964 5965
5810 5814 5817 5820 5822 5825 5828 5830 5832 5835 5837 5838 5840 5842 5844 5847 5850 5854 5856 5858 5860 5863 5865 5868 5870 5872 5874 5876 5879 5881 5883 5885 5887 5888 5889 5891 5892 5892 5893 5895 5896 5898 5900 5902 5905 5907 5908 5910 5911 5911 5912 5914 5915 5917 5919 5920 5922 5923 5924 5926 5928 5930 5932 5933 5935 5937 5938 5940 5941 5943 5945 5946 5947 5948 5949 5949 5950 5951 5952 5953 5954 5955 5955 5955 5956 5956 5957 5957 5958 5959 5960 5961 5961 5962 5963 5964 5965
5806 5809 5812 5815 5818 5822 5825 5827 5830 5832 5834 5836 5838 5839 5839 5842 5846 5850 5853 5855 5857 5860 5863 5865 5867 5870 5872 5874 5877 5879 5880 5882 5884 5886 5887 5887 5888 5888 5889 5890 5892 5894 5896 5899 5902 5905 5907 5908 5910 5911 5911 5913 5914 5916 5918 5919 5921 5922 5924 5925 5927 5928 5930 5931 5933 5935 5937 5938 5940 5942 5943 5945 5946 5947 5948 5949 5949 5950 5951 5952 5953 5954 5954 5955 5956 5956 5957 5957 5958 5959 5959 5960 5961 5962 5963 5963 5964
5802 5805 5808 5811 5814 5818 5821 5824 5826 5829 5831 5833 5835 5836 5836 5839 5843 5846 5849 5852 5855 5857 5860 5862 5865 5867 5869 5872 5875 5876 5878 5880 5882 5883 5884 5884 5885 5885 5885 5886 5887 5889 5892 5895 5898 5901 5904 5906 5908 5909 5910 5911 5912 5914 5915 5917 5919 5921 5922 5924 5925 5926 5928 5929 5932 5934 5936 5937 5939 5940 5942 5944 5945 5946 5947 5948 5949 5949 5950 5951 5952 5953 5954 5954 5955 5956 5956 5957 5957 5958 5959 5960 5961 5961 5962 5963 5964